sat.trackr.live / text

‹ back to catalog

STARLINK-34846

NORAD 66972 · 2025-288P

PAYLOAD ACTIVE UNKNOWN

§ Identity

Operator
Country
US
Launch date
2025-12-08
Launch site
AFETR
Launch vehicle
Mass (kg)
RCS (m²)

Purposes: comms

External: N2YO · Heavens-Above · Gunter

§ Orbital elements

Epoch: 2026-09-19T14:08:07.787328Z

Period
94.27 min
Inclination
43.0006°
Eccentricity
0.0002533
Mean motion
15.27596826 rev/d
Perigee alt
481.3 km
Apogee alt
484.7 km
Semi-major
6,861.1 km
B*
4.9694e-4
RAAN
8.2523°
Arg perigee
117.1832°
Mean anomaly
242.9278°
Rev number
4,494

§ Raw data

STARLINK-348461 66972U 25288P   26262.58897902  .00013445  00000+0  49694-3 0  99922 66972  43.0006   8.2523 0002533 117.1832 242.9278 15.27596826 44947

JSON: /api/v1/satellites/66972 · /tle

For live sub-satellite position, see the globe view (requires WebGL).

§ Visibility from observer

Set your observer location to see the next 7 days of passes ≥ 10°. The values pass through the URL so the page stays shareable.

No JS? Fill the form by hand. The geolocation button needs JavaScript.